TimeEST,TemperatureF,Dew PointF,Humidity,Sea Level PressureIn,VisibilityMPH,Wind Direction,Wind SpeedMPH,Gust SpeedMPH,PrecipitationIn,Events,Conditions,WindDirDegrees,DateUTC
12:53 AM,28.0,10.9,49,30.46,10.0,WNW,6.9,-,N/A,,Partly Cloudy,300,2013-11-29 05:53:00
1:53 AM,28.9,10.0,45,30.48,10.0,NW,8.1,-,N/A,,Overcast,320,2013-11-29 06:53:00
2:53 AM,30.0,10.0,43,30.48,10.0,NW,6.9,-,N/A,,Overcast,310,2013-11-29 07:53:00
3:53 AM,30.0,10.9,45,30.48,10.0,NNW,5.8,-,N/A,,Overcast,330,2013-11-29 08:53:00
4:53 AM,30.0,12.0,47,30.49,10.0,NW,4.6,-,N/A,,Overcast,320,2013-11-29 09:53:00
5:53 AM,28.9,12.9,51,30.51,10.0,Calm,Calm,-,N/A,,Overcast,0,2013-11-29 10:53:00
6:53 AM,28.9,12.9,51,30.52,10.0,North,3.5,-,N/A,,Overcast,350,2013-11-29 11:53:00
7:53 AM,30.9,14.0,50,30.54,10.0,NNW,5.8,-,N/A,,Overcast,330,2013-11-29 12:53:00
8:53 AM,33.1,14.0,46,30.56,10.0,North,6.9,-,N/A,,Overcast,350,2013-11-29 13:53:00
9:53 AM,34.0,16.0,48,30.57,10.0,NNW,9.2,-,N/A,,Scattered Clouds,340,2013-11-29 14:53:00
10:53 AM,35.1,12.9,40,30.56,10.0,North,6.9,-,N/A,,Clear,360,2013-11-29 15:53:00
11:53 AM,36.0,14.0,41,30.55,10.0,NW,11.5,17.3,N/A,,Overcast,310,2013-11-29 16:53:00
12:53 PM,37.0,15.1,41,30.55,10.0,NW,8.1,-,N/A,,Clear,320,2013-11-29 17:53:00
1:53 PM,37.0,14.0,39,30.55,10.0,Variable,5.8,-,N/A,,Clear,0,2013-11-29 18:53:00
2:53 PM,37.0,12.9,37,30.56,10.0,NW,8.1,-,N/A,,Clear,310,2013-11-29 19:53:00
3:53 PM,34.0,12.9,42,30.57,10.0,NW,4.6,-,N/A,,Clear,320,2013-11-29 20:53:00
4:53 PM,30.0,12.9,49,30.60,10.0,Calm,Calm,-,N/A,,Scattered Clouds,0,2013-11-29 21:53:00
5:53 PM,28.9,14.0,54,30.63,10.0,NNW,3.5,-,N/A,,Mostly Cloudy,340,2013-11-29 22:53:00
6:53 PM,28.9,12.0,49,30.64,10.0,North,8.1,-,N/A,,Clear,360,2013-11-29 23:53:00
7:53 PM,28.9,10.0,45,30.66,10.0,North,5.8,-,N/A,,Clear,10,2013-11-30 00:53:00
8:53 PM,28.9,10.0,45,30.68,10.0,North,6.9,-,N/A,,Clear,360,2013-11-30 01:53:00
9:53 PM,28.0,7.0,41,30.70,10.0,North,9.2,-,N/A,,Clear,360,2013-11-30 02:53:00
10:53 PM,27.0,6.1,41,30.71,10.0,North,6.9,-,N/A,,Clear,10,2013-11-30 03:53:00
11:53 PM,27.0,9.0,47,30.71,10.0,North,8.1,-,N/A,,Clear,360,2013-11-30 04:53:00